Wind_Speed
40 39 34 32 30 27 26 23 20 19 16 15 13 12 12 12 12 12 13 16 13 12 11 10 10 9 9 9 8 8 7 6 7 5 7 8 6 6 8 9 10 12 12
41 39 33 31 28 25 24 21 20 20 16 13 14 12 12 10 10 10 13 16 12 12 11 9 8 7 5 6 6 4 4 5 6 5 5 5 9 9 9 11 12 13 14
38 37 32 30 29 26 21 19 17 17 17 15 13 11 10 9 9 8 10 12 12 11 10 9 8 7 5 4 3 3 3 3 4 3 4 7 8 7 7 9 10 11 12
34 32 32 29 28 24 22 20 19 17 16 14 14 12 11 8 7 8 10 11 11 9 6 4 3 3 2 4 5 3 3 3 5 5 4 4 5 7 8 9 10 11 12
26 28 28 28 28 24 22 20 18 18 18 16 13 12 12 10 8 9 10 12 11 9 6 5 4 4 3 3 5 3 2 3 4 4 3 3 4 5 6 7 8 10 11
21 22 25 26 25 25 23 20 21 20 18 16 14 13 13 12 11 11 13 14 12 9 8 7 7 8 7 7 8 6 4 5 4 4 1 4 5 3 5 6 8 9 11
20 19 25 24 25 28 25 25 23 22 19 18 16 12 12 14 15 17 18 17 16 13 12 12 11 11 11 11 10 9 7 8 7 7 6 6 6 6 6 6 6 8 10
21 22 26 26 27 28 28 28 28 23 18 21 10 6 1 5 16 19 19 20 18 16 17 16 16 16 16 15 13 11 10 11 12 12 10 9 8 7 6 5 5 7 9
22 20 21 25 30 31 31 31 30 28 24 23 15 7 2 4 2 8 18 20 20 20 18 19 19 19 19 17 17 17 16 16 16 16 14 13 13 10 8 7 7 7 8
22 22 26 29 32 29 29 31 31 31 30 26 22 18 9 7 4 1 8 14 20 21 18 17 18 17 16 16 18 20 21 22 21 21 18 16 16 14 12 10 10 9 10
29 32 32 28 27 29 33 34 35 34 33 30 30 18 16 11 7 3 3 6 11 12 12 11 12 12 10 8 8 10 12 17 22 23 22 19 18 17 15 14 13 12 13
34 33 31 28 28 30 34 35 36 35 37 35 32 25 12 3 5 4 2 3 7 7 10 9 10 12 12 12 12 12 11 11 15 22 25 23 21 21 20 19 18 16 16
36 35 34 33 34 34 36 38 36 36 39 37 30 24 20 19 6 6 5 7 6 8 8 13 14 15 14 12 12 13 13 12 13 14 16 20 23 24 24 23 22 20 19
41 41 39 39 39 37 37 36 37 38 38 34 28 23 28 23 19 16 14 10 2 5 6 9 12 16 15 14 13 13 15 17 18 18 20 20 23 27 28 25 22 22 22
42 40 40 41 42 39 38 37 39 38 35 33 32 30 28 22 21 20 19 15 10 3 3 10 12 15 15 15 16 16 18 19 21 23 22 23 24 27 30 27 23 22 23
41 40 41 41 42 41 38 36 36 35 34 33 33 31 29 27 25 23 21 17 18 18 4 11 17 19 19 19 19 20 21 23 24 22 22 23 23 26 28 29 26 31 32
42 43 41 39 40 37 34 35 37 37 35 38 33 34 32 27 25 24 21 21 21 22 13 15 17 20 21 21 21 21 22 23 24 23 25 26 27 26 27 30 34 34 33
42 39 37 36 31 38 41 39 37 37 39 39 36 36 31 26 23 21 21 22 23 22 20 17 20 18 19 19 19 21 21 22 24 25 26 27 28 28 28 31 33 34 36
27 29 23 35 37 41 40 38 41 41 41 40 37 32 27 23 21 21 23 21 20 17 16 15 15 17 16 19 20 20 22 24 26 26 29 29 28 28 29 31 31 31 31
28 30 38 38 37 38 37 37 36 35 36 35 32 25 21 20 19 21 20 16 14 15 15 15 15 14 14 15 17 20 24 26 27 25 28 31 32 31 32 29 30 30 25
41 35 34 32 36 36 35 34 33 32 31 30 23 17 17 16 15 16 14 13 12 12 13 12 12 14 18 18 18 19 24 27 29 27 29 30 30 34 31 27 28 29 27
30 26 27 33 36 32 33 35 34 29 22 15 14 12 11 14 14 11 11 10 9 9 11 13 15 16 19 21 22 21 20 20 9 14 20 25 22 27 29 26 25 23 24
23 25 29 30 28 29 26 27 24 21 20 19 17 17 15 11 8 8 8 9 11 13 14 15 18 20 22 22 21 23 22 22 21 23 23 26 25 32 28 26 25 21 20
23 23 21 20 22 19 22 20 17 17 15 14 16 12 10 7 6 8 9 10 12 13 13 14 16 19 20 21 22 24 25 26 26 24 20 21 22 28 30 26 25 23 23
17 17 19 19 20 17 16 15 15 19 21 16 11 7 4 5 5 6 8 10 11 12 11 11 14 17 18 18 19 23 20 18 21 22 18 19 24 26 26 26 25 23 21
16 16 17 16 17 18 14 15 16 15 13 11 7 4 3 4 4 6 7 9 10 9 13 15 18 20 19 20 19 20 23 18 17 15 15 18 19 15 7 17 22 20 17
Wind_Direction
164 163 160 161 157 157 157 150 145 144 141 147 147 142 133 132 126 122 131 151 144 136 133 136 128 116 101 95 90 82 63 70 48 58 46 35 24 38 31 26 18 18 11
167 164 165 164 158 163 163 153 154 148 147 153 147 142 134 137 138 135 133 151 152 148 150 147 140 129 122 122 111 90 75 77 68 51 33 18 53 47 42 39 23 15 10
168 161 169 168 163 167 163 154 158 152 150 157 154 148 142 147 146 156 147 152 162 166 163 159 152 146 140 154 138 95 85 106 89 67 45 62 40 28 22 20 15 3 358
171 163 171 171 168 171 170 171 169 159 158 168 158 158 163 165 164 169 168 167 171 172 173 163 166 167 164 178 154 120 79 97 100 93 79 51 25 21 23 16 5 358 352
171 171 174 175 174 178 182 178 175 177 172 168 165 174 184 188 189 192 194 189 191 196 187 184 200 199 220 272 205 189 108 124 121 121 110 82 45 29 24 15 4 355 348
177 177 180 180 184 189 188 188 187 187 188 182 179 192 201 203 215 220 218 206 208 214 212 217 215 219 234 248 221 214 192 198 207 191 185 344 336 336 351 359 353 346 342
186 194 194 197 198 197 198 196 193 192 192 189 181 197 205 216 227 226 226 222 223 226 225 226 230 233 237 237 234 227 226 226 233 238 238 309 325 313 328 334 334 335 335
194 200 203 204 206 205 207 201 197 195 201 192 176 149 190 237 235 233 231 226 233 236 235 234 236 239 237 242 241 248 245 246 259 250 246 242 266 291 299 297 297 315 324
204 207 218 218 217 211 209 205 204 208 201 199 193 162 118 220 187 217 225 228 234 237 240 236 239 243 241 251 242 245 256 256 255 253 259 258 251 249 258 258 269 289 306
218 226 231 226 223 219 218 213 212 216 214 202 205 213 202 165 173 205 214 226 234 238 239 237 242 239 244 244 240 252 253 249 254 255 262 264 250 244 246 250 265 277 294
224 227 229 226 227 225 225 221 218 218 220 217 206 206 212 192 184 128 218 218 216 223 228 237 239 239 231 232 251 268 268 263 261 267 268 262 252 248 249 253 260 268 286
231 232 233 237 239 236 233 229 224 225 227 227 221 215 203 182 195 182 177 218 216 218 218 227 242 249 246 262 278 275 264 262 264 265 265 261 255 252 251 253 258 265 278
239 242 244 246 246 241 236 233 228 232 230 226 225 209 208 200 199 211 243 237 223 239 237 233 240 238 247 268 280 277 273 278 292 291 279 277 266 253 253 255 259 264 275
245 245 246 247 246 244 241 232 230 231 231 228 215 215 218 204 213 230 221 200 210 238 243 240 240 251 258 277 285 285 282 284 287 291 281 287 280 270 270 256 260 267 274
244 247 247 244 241 239 238 231 228 227 228 222 218 217 213 221 230 231 220 233 205 205 239 252 245 264 275 288 294 291 288 287 287 289 284 285 282 273 269 254 256 259 260
244 244 245 241 238 235 231 228 225 225 223 217 211 216 215 223 225 216 234 234 236 234 217 237 262 272 281 286 290 289 286 285 286 286 287 285 285 279 271 259 255 271 268
242 242 243 239 237 231 227 225 222 222 220 216 211 212 221 223 219 225 233 236 241 236 224 254 261 272 277 284 287 288 289 288 289 286 288 287 282 279 272 262 268 273 273
236 236 238 242 241 233 225 223 221 220 215 210 218 214 217 219 224 235 233 241 245 249 248 250 270 274 279 287 287 290 292 290 289 289 285 282 280 272 271 273 274 276 277
226 232 249 245 235 232 227 224 226 221 214 213 213 214 217 223 226 228 246 240 247 249 255 258 276 281 285 290 294 289 289 288 288 289 282 276 269 272 274 269 274 273 272
217 236 242 239 234 228 227 223 217 216 210 213 214 207 217 217 226 239 230 227 236 247 260 271 278 283 290 292 296 296 297 296 294 288 281 279 274 272 276 271 271 268 255
218 231 227 232 231 224 223 218 216 213 208 207 202 203 216 218 226 217 217 224 239 250 258 270 282 286 287 293 291 297 292 298 296 290 285 280 277 279 265 269 268 256 260
224 232 230 224 221 218 218 217 211 197 195 196 191 187 180 188 199 212 228 234 244 260 270 276 278 275 283 291 297 298 293 294 301 294 284 283 282 284 280 269 263 255 253
228 232 219 211 205 203 200 195 194 189 181 176 189 180 179 187 201 216 232 250 262 270 275 280 279 285 292 296 300 293 287 280 275 282 285 279 279 277 269 268 257 242 244
213 202 196 187 186 180 173 174 163 167 178 169 171 173 190 193 228 248 264 271 277 281 289 289 288 294 294 295 291 289 288 282 280 278 275 273 280 271 280 260 247 253 259
179 169 165 161 154 146 155 165 168 160 156 153 159 163 213 236 249 276 288 294 297 304 307 303 302 300 297 294 290 286 280 282 283 281 270 259 275 275 273 256 253 252 259
154 155 144 143 146 137 144 154 156 158 143 145 159 177 223 267 283 290 300 303 317 324 326 320 312 308 305 302 298 285 285 267 272 289 281 242 260 260 268 251 250 244 236
Height
813 818 821 825 826 831 834 836 840 843 848 853 855 855 857 860 862 863 864 865 867 868 870 872 872 874 874 873 875 876 877 876 877 878 878 878 878 877 877 876 876 875 875
813 817 822 826 828 833 837 837 842 843 848 853 855 856 857 860 862 864 864 865 867 868 871 872 872 873 874 874 875 876 876 876 877 878 879 879 878 877 877 877 877 877 876
816 814 821 826 828 835 839 840 845 845 847 853 855 857 858 860 860 864 865 865 868 869 869 870 871 872 873 875 875 876 875 875 875 876 878 879 878 878 877 877 877 877 877
817 815 821 826 830 836 838 840 844 845 849 854 854 856 859 861 861 862 863 864 866 868 869 870 870 870 872 873 875 875 875 875 874 875 876 877 878 877 877 877 877 876 876
817 818 822 826 831 835 839 840 843 846 848 851 854 857 858 860 860 861 862 863 865 866 866 868 869 870 872 872 873 874 874 876 875 874 874 875 875 876 875 875 875 875 875
818 820 823 828 831 834 838 839 842 845 848 851 853 856 857 858 859 860 862 862 864 865 865 866 867 869 870 871 871 872 872 875 876 875 872 872 872 874 873 873 874 874 873
817 820 825 827 830 832 834 838 841 843 846 847 851 854 855 856 856 857 861 862 862 863 863 864 865 867 867 869 869 869 870 872 874 873 871 870 869 870 870 870 871 871 870
815 819 821 824 827 829 834 835 837 842 845 846 847 851 854 855 853 855 858 859 860 861 861 862 862 864 865 865 866 867 868 869 872 870 869 868 867 865 866 867 868 867 867
811 815 819 821 825 828 829 830 833 837 840 843 843 846 853 853 850 850 853 855 857 857 858 859 859 860 862 863 863 865 866 866 868 868 867 866 865 864 863 863 864 864 863
808 811 818 821 821 823 825 827 829 832 834 836 840 840 840 840 846 849 848 849 851 853 854 854 855 857 858 859 859 861 862 862 862 864 864 863 862 861 860 860 860 859 859
809 811 812 818 817 818 821 822 823 827 828 832 833 836 838 839 840 843 848 846 846 848 849 849 850 852 853 854 855 856 857 858 858 860 860 859 858 857 856 856 856 855 855
804 806 806 809 810 813 815 817 818 822 825 827 828 830 834 838 838 841 843 843 844 846 846 847 848 849 851 851 851 852 852 853 853 854 855 854 854 853 852 852 851 850 850
794 794 799 801 804 806 808 810 814 817 820 821 824 826 827 828 838 838 841 844 841 843 843 844 844 845 846 847 847 847 847 848 848 848 849 849 848 848 847 847 847 846 846
787 791 793 796 799 800 802 805 808 811 814 818 818 822 825 825 827 832 837 839 840 839 839 839 840 842 843 842 842 842 842 843 843 842 842 842 842 841 841 842 842 843 843
784 785 786 788 791 793 795 798 801 803 807 810 813 813 819 821 824 827 831 831 832 837 836 835 837 838 839 839 838 837 837 837 837 836 835 835 835 835 835 835 835 835 834
778 779 781 783 784 786 788 791 794 798 802 804 807 810 813 815 817 821 824 826 828 829 831 831 831 832 832 832 832 831 831 830 829 829 828 827 827 827 827 828 828 827 827
772 773 776 778 778 779 776 785 786 789 793 797 801 805 808 810 814 815 817 821 823 823 824 824 825 826 825 825 825 825 825 824 823 822 821 821 820 820 820 819 819 818 818
764 765 768 771 767 769 774 775 780 782 786 790 794 797 799 805 809 811 813 816 818 818 819 819 820 820 821 820 818 817 818 818 817 816 815 814 813 812 812 811 810 810 809
763 757 755 762 761 767 769 770 773 775 779 783 786 790 795 800 803 805 809 810 812 814 815 814 814 816 814 814 812 810 810 810 810 809 808 806 805 804 804 803 802 800 800
753 749 756 759 758 759 763 767 770 773 776 779 782 786 790 794 797 800 803 805 807 809 810 810 810 810 810 809 807 805 802 802 801 802 800 799 797 796 795 794 793 792 792
742 743 746 749 752 754 758 762 766 769 772 774 780 784 789 790 793 797 799 801 802 803 805 805 805 805 804 804 803 800 797 794 792 793 789 789 789 786 786 785 784 784 785
738 740 741 743 747 749 751 757 760 764 769 776 780 783 786 789 791 793 796 797 798 800 801 800 800 800 797 797 797 795 793 791 787 787 783 780 782 779 779 777 777 777 778
735 737 739 740 742 746 751 754 758 762 766 769 777 782 784 788 788 791 793 793 795 796 796 796 794 795 793 793 792 790 789 787 784 782 780 773 775 771 771 771 771 772 774
732 734 737 739 741 745 749 755 756 761 768 773 778 781 784 786 787 789 789 790 791 791 791 791 790 789 789 789 788 786 784 781 777 775 776 769 768 763 763 764 766 767 767
732 734 738 739 744 748 750 757 760 763 767 772 776 780 783 786 788 787 787 786 786 786 787 786 785 784 784 783 782 781 778 776 770 767 767 765 761 758 756 756 758 759 760
734 737 740 744 747 751 756 760 762 770 769 772 777 778 782 784 784 784 784 784 783 783 782 781 780 779 779 777 776 775 772 769 767 761 758 759 756 756 753 748 750 751 753